Regional Weather Roundup
Issued by NWS

Home | Current Version | Previous Version | Text Only | Print | Product List | Glossary On
Versions: 1 2 3 4 5 6 7 8 9 10 11 12 13 14 15 16 17 18 19 20 21 22 23 24 25 26 27 28 29 30 31 32 33 34 35 36 37 38 39 40 41 42 43 44 45 46 47 48 49 50
000
ASUS43 KLSX 220407
RWRMO

WEATHER SUMMARY FOR MISSOURI
NATIONAL WEATHER SERVICE SPRINGFIELD MO
1100 PM CDT SAT SEP 21 2019

NOTE: "FAIR" INDICATES FEW OR NO CLOUDS BELOW 12,000 FEET WITH NO
       SIGNIFICANT WEATHER AND/OR OBSTRUCTIONS TO VISIBILITY.
       CURRENT SKY AND/OR WEATHER CONDITIONS ARE NOT AVAILABLE FOR
       CHILLICOTHE AND FARMINGTON.

MOZ001>031-035>038-043-044-053-054-220500-
...NORTHERN AND WESTERN MISSOURI...

CITY           SKY/WX    TMP DP  RH WIND       PRES   REMARKS
KANSAS CTY INT MOCLDY    75  70  84 S16G23    29.92F
KANSAS C DTWN  MOCLDY    77  69  76 S12       29.92R
LEE`S SUMMIT   MOCLDY    76  68  76 S15G25    29.95R
ST JOSEPH      CLEAR     75  70  84 S14       29.90F
CHILLICOTHE      N/A     73  70  90 S3        29.95F
KIRKSVILLE     CLOUDY    72  70  93 S7        29.98F

$$
MOZ066>068-077>081-088>096-101>105-220500-
...SOUTHWEST MISSOURI...

CITY           SKY/WX    TMP DP  RH WIND       PRES   REMARKS
SPRINGFIELD    CLEAR     76  66  71 S13       30.01F
JOPLIN         CLEAR     76  68  76 S16       29.96F

$$
MOZ032>034-039>042-045>050-055>058-069>072-220500-
...CENTRAL MISSOURI...

CITY           SKY/WX    TMP DP  RH WIND       PRES   REMARKS
COLUMBIA       CLEAR     73  68  84 SE7       30.01R
JEFFERSON CITY CLEAR     76  69  79 E6        30.00R
ROLLA          CLEAR     75  63  66 S15G22    30.04F
SEDALIA        CLEAR     72  69  90 S9        29.98R
WHITEMAN AFB   MOCLDY    73  72  94 S12       29.92S
WARRENSBURG    MOCLDY    75  66  73 S10G17    29.95S
OSAGE BEACH    CLEAR     76  68  76 S6        30.02S

$$
MOZ051-052-059>065-220500-
...EAST CENTRAL MISSOURI...

CITY           SKY/WX    TMP DP  RH WIND       PRES   REMARKS
ST LOUIS INTL  CLOUDY    79  66  64 S12       30.05S
SPIRIT OF STL  CLEAR     79  67  66 S10       30.03S
ST CHARLES       N/A    N/A N/A N/A MISG      30.03S

$$
MOZ072>076-082>087-097>100-106>115-220500-
...SOUTH CENTRAL AND SOUTHEAST MISSOURI...

CITY           SKY/WX    TMP DP  RH WIND       PRES   REMARKS
CAPE GIRARDEAU FAIR      73  60  63 S6        30.09S
FARMINGTON     CLEAR     72  68  87 S8        30.09F
POPLAR BLUFF   FAIR      73  62  68 S6        30.09S
WEST PLAINS    CLEAR     73  64  73 S7        30.09F

$$



USA.gov is the U.S. government's official web portal to all federal, state and local government web resources and services.